This demonstration page uses our WeatherBlox Daily Observations layout. Learn more.

Left ArrowRight Arrow

39.29038, -76.61219

Hourly Observations for February 28, 2021

Temp ( °F °C ) Dew Point ( °F °C ) Humidity (%) Winds ( mph kmh ) Pressure ( in mb ) Visibility ( mi km ) Precip ( " mm )
12:54 am 00:54 Cloudy 43 6.1 40 4.4 89 89 E 3 6 30.25 1024 10 16 N/A
1:54 am 01:54 Cloudy 43 6.1 40 4.4 89 89 N N/A 30.27 1025 10 16 N/A
2:54 am 02:54 Cloudy 44 6.7 42 5.6 93 93 N N/A 30.28 1025 10 16 N/A
3:54 am 03:54 Cloudy 44 6.7 40 4.4 85 85 N N/A 30.26 1025 10 16 N/A
4:54 am 04:54 Cloudy with Light Rain 43 6.1 41 5 93 93 N N/A 30.25 1025 6 10 0.00 0.00
5:54 am 05:54 Cloudy with Light Rain 44 6.7 41 5 89 89 N N/A 30.27 1025 8 13 0.00 0.00
6:54 am 06:54 Cloudy with Light Rain 44 6.7 42 5.6 93 93 N N/A 30.27 1025 4 6 0.03 0.76
7:54 am 07:54 Cloudy with Light Rain 45 7.2 43 6.1 93 93 N N/A 30.27 1025 5 8 0.02 0.51
8:54 am 08:54 Cloudy with Light Rain 46 7.8 43 6.1 89 89 E 7 11 30.24 1024 3 5 0.02 0.51
9:06 am 09:06 Cloudy with Light Rain 45 7.2 43 6.1 93 93 E 7 11 30.24 1024 3 4 0.01 0.25
9:54 am 09:54 Cloudy with Light Rain 45 7.2 43 6.1 93 93 ENE 7 11 30.22 1023 3 4 0.03 0.76
10:45 am 10:45 Cloudy with Light Rain 45 7.2 43 6.1 93 93 ENE 6 9 30.22 1023 3 4 0.00 0.00
10:52 am 10:52 Cloudy with Light Rain 45 7 43 6 93 93 ENE 9 15 30.22 1023 3 5 0.00 0.00
10:54 am 10:54 Cloudy with Light Rain 45 7.2 42 5.6 90 90 E 8 13 30.21 1023 3 5 0.01 0.25
11:14 am 11:14 Cloudy with Light Rain 45 7.2 42 5.6 90 90 NE 9 15 30.22 1023 3 4 0.04 1.02
11:54 am 11:54 Cloudy with Light Rain 45 7.2 42 5.6 90 90 E 8 13 30.23 1024 3 4 0.17 4.32
12:54 pm 12:54 Cloudy with Light Rain 44 6.7 41 5 89 89 E 15 24 30.14 1021 2 3 0.13 3.30
1:18 pm 13:18 Cloudy with Light Rain 44 6.7 41 5 89 89 E 13 20 30.13 1020 3 5 0.04 1.02
1:39 pm 13:39 Cloudy with Light Rain 44 6.7 41 5 89 89 E 14 22 30.12 1020 2 3 0.07 1.78
1:54 pm 13:54 Cloudy with Light Rain 43 6.1 41 5 93 93 E 16 26 30.08 1019 2 3 0.11 2.79
2:54 pm 14:54 Cloudy with Light Rain 43 6.1 41 5 93 93 E 9 15 30.08 1019 2 3 0.21 5.33
3:35 pm 15:35 Cloudy with Light Rain 43 6.1 41 5 93 93 ENE 10 17 30.08 1018 4 6 0.06 1.52
3:54 pm 15:54 Cloudy with Light Rain 43 6.1 41 5 93 93 E 9 15 30.06 1018 4 6 0.07 1.78
4:49 pm 16:49 Cloudy with Light Rain 43 6 41 5 93 93 ENE 9 15 30.04 1017 4 6 0.03 0.76
4:54 pm 16:54 Cloudy with Light Rain 43 6.1 41 5 93 93 ENE 9 15 30.03 1017 4 6 0.03 0.76
5:46 pm 17:46 Cloudy with Mist and Fog 43 6.1 41 5 93 93 E 8 13 30.02 1016 3 4 0.00 0.00
5:54 pm 17:54 Cloudy with Light Rain 43 6.1 41 5 93 93 ENE 6 9 30.01 1016 3 4 0.00 0.00
6:11 pm 18:11 Cloudy with Light Rain 43 6.1 41 5 93 93 E 7 11 30.00 1016 1 2 0.00 0.00
6:54 pm 18:54 Cloudy with Light Rain 43 6.1 41 5 93 93 ENE 7 11 29.98 1015 1 2 0.00 0.00
7:54 pm 19:54 Cloudy with Light Rain 43 6.1 41 5 93 93 NE 3 6 29.95 1014 1 2 0.00 0.00
8:54 pm 20:54 Mostly Cloudy with Mist and Fog 43 6.1 42 5.6 97 97 VRB 5 7 29.93 1014 1 2 0.00 0.00
9:05 pm 21:05 Mostly Cloudy with Mist and Fog 43 6.1 42 5.6 97 97 N 5 7 29.94 1014 1 1 N/A
9:54 pm 21:54 Mostly Cloudy with Fog 44 6.7 42 5.6 93 93 NE 3 6 29.90 1013 1 1 N/A
10:22 pm 22:22 Mostly Cloudy with Light Rain 44 6.7 41 5 89 89 N 3 6 29.91 1013 0 0 0.01 0.25
10:54 pm 22:54 Mostly Cloudy with Light Rain 44 6.7 43 6.1 96 96 N N/A 29.90 1013 0 0 0.01 0.25
11:52 pm 23:52 Cloudy with Rain 45 7 43 6 93 93 N N/A 29.85 1011 1 1 0.04 1.02
11:54 pm 23:54 Cloudy with Rain 44 6.7 42 5.6 93 93 N N/A 29.84 1011 1 1 0.05 1.27

Powered by AerisWeather